Wheaton NDB, MN

8:45 AM CDT on April 20, 2018 (GMT -0500)
Wheaton Municipal

Weather History for KETH - May, 2013

Change the Weather History Date:

Tuesday, May 28, 2013

  Actual Average Record
Temperature  
Mean Temperature 64 °F -  
Max Temperature 73 °F 76 °F 98 °F (2006)
Min Temperature 55 °F 52 °F 32 °F (1965)
Degree Days  
Heating Degree Days 1    
Growing Degree Days 14 (Base 50)    
Moisture  
Dew Point 56 °F    
Average Humidity 85    
Maximum Humidity 100    
Minimum Humidity 57    
Precipitation  
Precipitation 0.00 in - - ()
Sea Level Pressure  
Sea Level Pressure 29.73 in    
Wind  
Wind Speed 9 mph (SSE)    
Max Wind Speed 18 mph    
Max Gust Speed -    
Visibility 7 miles    
Events      
Averages and records for this station are not official NWS values.
T = Trace of Precipitation, MM = Missing Value Source: NWS Daily Summary

Daily Weather History Graph

Daily Weather History Graph

Search for Another Location

Airport or City:

Astronomy

May. 28, 2013 Rise Set
Actual Time 5:42 AM CDT 9:05 PM CDT
Civil Twilight 5:05 AM CDT 9:42 PM CDT
Nautical Twilight 4:17 AM CDT 10:30 PM CDT
Astronomical Twilight 3:16 AM CDT 11:32 PM CDT
Moon No Moon Rise 9:36 AM CDT (5/28)
Length of Visible Light 16h 36m
Length of Day
15h 23m
Waning Gibbous, 82% of the Moon is Illuminated
May 28
Waning Gibbous
May 31
Last Quarter
Jun 8
New
Jun 16
First Quarter
Jun 23
Full

Hourly Weather History & Observations

Time (CDT) Temp. Dew Point Humidity Pressure Visibility Wind Dir Wind Speed Gust Speed Precip Events Conditions
12:15 AM 57.2 °F 53.6 °F 88% 29.79 in 10.0 mi ESE 11.5 mph - N/A   Overcast
12:35 AM 57.2 °F 53.6 °F 88% 29.79 in 10.0 mi ESE 12.7 mph - N/A   Overcast
12:55 AM 57.2 °F 53.6 °F 88% 29.80 in 10.0 mi SE 9.2 mph - N/A   Overcast
1:14 AM 57.2 °F 53.6 °F 88% 29.82 in 10.0 mi SE 10.4 mph - N/A   Overcast
1:35 AM 57.2 °F 53.6 °F 88% 29.82 in 10.0 mi SE 9.2 mph - N/A   Overcast
1:55 AM 57.2 °F 53.6 °F 88% 29.84 in 10.0 mi SSE 6.9 mph - N/A   Overcast
2:15 AM 57.2 °F 53.6 °F 88% 29.82 in 10.0 mi SSE 3.5 mph - N/A   Overcast
2:34 AM 57.2 °F 53.6 °F 88% 29.80 in 7.0 mi SE 5.8 mph - N/A   Overcast
2:54 AM 55.4 °F 53.6 °F 94% 29.78 in 3.0 mi SE 4.6 mph - N/A   Overcast
3:15 AM 55.4 °F 53.6 °F 94% 29.78 in 2.5 mi SSE 3.5 mph - N/A   Overcast
3:34 AM 55.4 °F 53.6 °F 94% 29.77 in 2.0 mi ESE 3.5 mph - N/A   Overcast
3:54 AM 55.4 °F 53.6 °F 94% 29.76 in 1.2 mi ESE 3.5 mph - N/A   Overcast
4:15 AM 55.4 °F 53.6 °F 94% 29.78 in 1.2 mi SSE 3.5 mph - N/A   Overcast
4:35 AM 55.4 °F 55.4 °F 100% 29.78 in 1.5 mi SSE 5.8 mph - N/A   Drizzle
4:55 AM 55.4 °F 55.4 °F 100% 29.77 in 1.2 mi SE 8.1 mph - N/A   Overcast
5:15 AM 55.4 °F 55.4 °F 100% 29.75 in 1.2 mi SE 5.8 mph - N/A   Overcast
5:35 AM 55.4 °F 53.6 °F 94% 29.74 in 1.2 mi ESE 8.1 mph - N/A   Overcast
5:55 AM 55.4 °F 53.6 °F 94% 29.72 in 1.5 mi ESE 10.4 mph - N/A   Overcast
6:15 AM 55.4 °F 53.6 °F 94% 29.71 in 3.0 mi ESE 10.4 mph - N/A   Overcast
6:35 AM 55.4 °F 55.4 °F 100% 29.72 in 3.0 mi ESE 11.5 mph - N/A   Overcast
6:55 AM 55.4 °F 55.4 °F 100% 29.73 in 4.0 mi SE 11.5 mph - N/A   Overcast
7:15 AM 55.4 °F 55.4 °F 100% 29.72 in 3.0 mi ESE 11.5 mph - N/A   Overcast
7:35 AM 55.4 °F 55.4 °F 100% 29.71 in 3.0 mi SE 12.7 mph - N/A   Overcast
7:55 AM 55.4 °F 55.4 °F 100% 29.69 in 4.0 mi ESE 16.1 mph - N/A   Overcast
8:14 AM 55.4 °F 53.6 °F 94% 29.69 in 5.0 mi ESE 18.4 mph - N/A   Overcast
8:35 AM 55.4 °F 55.4 °F 100% 29.70 in 4.0 mi ESE 15.0 mph - N/A   Overcast
8:55 AM 55.4 °F 55.4 °F 100% 29.73 in 5.0 mi SE 9.2 mph - N/A   Overcast
9:15 AM 55.4 °F 53.6 °F 94% 29.75 in 5.0 mi SSE 9.2 mph - N/A   Overcast
9:34 AM 55.4 °F 55.4 °F 100% 29.75 in 7.0 mi South 6.9 mph - N/A   Overcast
9:55 AM 55.4 °F 53.6 °F 94% 29.75 in 5.0 mi SSE 6.9 mph - N/A   Overcast
10:15 AM 55.4 °F 55.4 °F 100% 29.75 in 5.0 mi South 5.8 mph - N/A   Overcast
10:36 AM 55.4 °F 55.4 °F 100% 29.76 in 5.0 mi SSW 5.8 mph - N/A   Overcast
10:54 AM 55.4 °F 55.4 °F 100% 29.76 in 5.0 mi South 5.8 mph - N/A   Overcast
11:15 AM 55.4 °F 55.4 °F 100% 29.76 in 5.0 mi South 6.9 mph - N/A   Overcast
11:35 AM 55.4 °F 55.4 °F 100% 29.75 in 4.0 mi South 4.6 mph - N/A   Overcast
11:55 AM 57.2 °F 55.4 °F 94% 29.75 in 3.0 mi SSE 5.8 mph - N/A   Overcast
12:14 PM 57.2 °F 55.4 °F 94% 29.75 in 4.0 mi SE 6.9 mph - N/A   Overcast
12:34 PM 57.2 °F 55.4 °F 94% 29.74 in 5.0 mi ESE 11.5 mph - N/A   Overcast
12:54 PM 59.0 °F 55.4 °F 88% 29.73 in 7.0 mi SE 12.7 mph - N/A   Overcast
1:15 PM 60.8 °F 55.4 °F 82% 29.73 in 10.0 mi SE 11.5 mph - N/A   Mostly Cloudy
1:35 PM 60.8 °F 57.2 °F 88% 29.73 in 10.0 mi SSE 10.4 mph - N/A   Mostly Cloudy
1:54 PM 62.6 °F 57.2 °F 82% 29.73 in 10.0 mi South 8.1 mph - N/A   Mostly Cloudy
2:14 PM 62.6 °F 57.2 °F 82% 29.73 in 10.0 mi SSE 10.4 mph - N/A   Mostly Cloudy
2:36 PM 64.4 °F 57.2 °F 77% 29.73 in 10.0 mi SSE 8.1 mph - N/A   Mostly Cloudy
2:55 PM 64.4 °F 57.2 °F 77% 29.72 in 10.0 mi SE 10.4 mph - N/A   Mostly Cloudy
3:14 PM 66.2 °F 57.2 °F 73% 29.72 in 10.0 mi South 5.8 mph - N/A   Scattered Clouds
3:34 PM 66.2 °F 57.2 °F 73% 29.72 in 10.0 mi South 5.8 mph - N/A   Clear
3:54 PM 68.0 °F 57.2 °F 68% 29.71 in 10.0 mi SSE 8.1 mph - N/A   Scattered Clouds
4:14 PM 69.8 °F 57.2 °F 64% 29.71 in 10.0 mi South 9.2 mph - N/A   Scattered Clouds
4:35 PM 69.8 °F 57.2 °F 64% 29.71 in 10.0 mi South 10.4 mph - N/A   Mostly Cloudy
4:55 PM 71.6 °F 57.2 °F 60% 29.71 in 10.0 mi SSE 5.8 mph - N/A   Scattered Clouds
5:14 PM 69.8 °F 57.2 °F 64% 29.70 in 10.0 mi South 5.8 mph - N/A   Scattered Clouds
5:34 PM 69.8 °F 57.2 °F 64% 29.70 in 10.0 mi South 5.8 mph - N/A   Scattered Clouds
5:55 PM 71.6 °F 57.2 °F 60% 29.70 in 10.0 mi SSW 6.9 mph - N/A   Scattered Clouds
6:15 PM 73.4 °F 57.2 °F 57% 29.69 in 10.0 mi SSW 5.8 mph - N/A   Clear
6:34 PM 71.6 °F 57.2 °F 60% 29.69 in 10.0 mi SSW 4.6 mph - N/A   Clear
6:55 PM 73.4 °F 57.2 °F 57% 29.69 in 10.0 mi SSE 5.8 mph - N/A   Clear
7:15 PM 71.6 °F 57.2 °F 60% 29.69 in 10.0 mi SSE 8.1 mph - N/A   Clear
7:35 PM 71.6 °F 57.2 °F 60% 29.68 in 10.0 mi SE 12.7 mph - N/A   Clear
7:55 PM 69.8 °F 57.2 °F 64% 29.68 in 10.0 mi SSE 8.1 mph - N/A   Clear
8:15 PM 69.8 °F 57.2 °F 64% 29.68 in 10.0 mi SE 10.4 mph - N/A   Clear
8:35 PM 68.0 °F 57.2 °F 68% 29.68 in 10.0 mi SE 10.4 mph - N/A   Clear
8:55 PM 66.2 °F 57.2 °F 73% 29.68 in 10.0 mi SE 9.2 mph - N/A   Clear
9:15 PM 64.4 °F 57.2 °F 77% 29.69 in 10.0 mi SE 10.4 mph - N/A   Clear
9:35 PM 64.4 °F 57.2 °F 77% 29.70 in 10.0 mi SSE 10.4 mph - N/A   Clear
9:54 PM 62.6 °F 57.2 °F 82% 29.70 in 10.0 mi SE 10.4 mph - N/A   Clear
10:15 PM 60.8 °F 55.4 °F 82% 29.71 in 10.0 mi SE 9.2 mph - N/A   Clear
10:34 PM 60.8 °F 55.4 °F 82% 29.71 in 10.0 mi SE 10.4 mph - N/A   Clear
10:54 PM 60.8 °F 55.4 °F 82% 29.71 in 10.0 mi SE 11.5 mph - N/A   Clear
11:15 PM 60.8 °F 55.4 °F 82% 29.72 in 10.0 mi SE 11.5 mph - N/A   Clear
11:35 PM 59.0 °F 55.4 °F 88% 29.71 in 10.0 mi SSE 12.7 mph - N/A   Clear
11:55 PM 59.0 °F 55.4 °F 88% 29.72 in 10.0 mi SSE 12.7 mph - N/A   Clear